| time (UTC) | temp C | wind direction | speed KPH | gust KPH | rain 1hr cm | rain 24hr cm | rain mn cm | humidity % | barometer mb |
| 20260507010816 | 7 | 284 | 0.0 | 0.0 | 0.05 | 2.77 | 0.10 | 94 | 1013.5 |
| 20260507003816 | 7 | 0 | 0.0 | 0.0 | 0.05 | 2.74 | 0.08 | 94 | 1013.4 |
| 20260507000816 | 7 | 290 | 0.0 | 0.0 | 0.05 | 2.97 | 0.05 | 94 | 1013.4 |
| 20260506233824 | 7 | 311 | 0.0 | 1.6 | 0.03 | 2.95 | 0.03 | 94 | 1013.2 |
| 20260506233816 | 7 | 311 | 0.0 | 1.6 | 0.03 | 2.95 | 0.03 | 94 | 1013.2 |
| 20260506230827 | 7 | 262 | 0.0 | 0.0 | 0.00 | 3.33 | 0.00 | 94 | 1013.2 |
| 20260506230816 | 7 | 262 | 0.0 | 0.0 | 0.00 | 3.33 | 0.00 | 94 | 1013.2 |
| 20260506223816 | 7 | 297 | 0.0 | 1.6 | 0.00 | 3.33 | 0.00 | 94 | 1013.1 |
| 20260506220824 | 7 | 330 | 0.0 | 0.0 | 0.00 | 3.73 | 0.00 | 94 | 1012.8 |
| 20260506220816 | 7 | 330 | 0.0 | 0.0 | 0.00 | 3.73 | 0.00 | 94 | 1012.8 |
| 20260506213816 | 7 | 288 | 0.0 | 1.6 | 0.00 | 3.73 | 3.78 | 94 | 1012.8 |
| 20260506210828 | 7 | 285 | 0.0 | 0.0 | 0.03 | 4.19 | 3.78 | 94 | 1012.7 |
| 20260506210820 | 7 | 285 | 0.0 | 0.0 | 0.03 | 4.19 | 3.78 | 94 | 1012.7 |
| 20260506210817 | 7 | 285 | 0.0 | 0.0 | 0.03 | 4.19 | 3.78 | 94 | 1012.7 |
| 20260506203816 | 7 | 274 | 0.0 | 0.0 | 0.03 | 4.19 | 3.78 | 94 | 1012.5 |
| 20260506200822 | 7 | 352 | 0.0 | 0.0 | 0.00 | 4.47 | 3.76 | 94 | 1012.2 |
| 20260506200816 | 7 | 352 | 0.0 | 0.0 | 0.00 | 4.47 | 3.76 | 94 | 1012.2 |
| 20260506193827 | 7 | 272 | 0.0 | 0.0 | 0.00 | 4.47 | 3.76 | 94 | 1012.1 |
| 20260506193816 | 7 | 272 | 0.0 | 0.0 | 0.00 | 4.47 | 3.76 | 94 | 1012.1 |
| 20260506190837 | 7 | 267 | 0.0 | 3.2 | 0.00 | 4.83 | 3.76 | 94 | 1011.7 |
| 20260506190816 | 7 | 267 | 0.0 | 3.2 | 0.00 | 4.83 | 3.76 | 94 | 1011.7 |
| 20260506183816 | 7 | 291 | 0.0 | 3.2 | 0.03 | 4.83 | 3.76 | 94 | 1011.4 |
| 20260506180837 | 8 | 236 | 0.0 | 0.0 | 0.03 | 4.98 | 3.76 | 94 | 1011.1 |
| 20260506180816 | 8 | 236 | 0.0 | 0.0 | 0.03 | 4.98 | 3.76 | 94 | 1011.1 |
| 20260506173816 | 8 | 276 | 0.0 | 0.0 | 0.05 | 4.95 | 3.73 | 94 | 1010.8 |
| 20260506170842 | 8 | 32 | 0.0 | 0.0 | 0.10 | 4.95 | 3.73 | 94 | 1010.6 |
| 20260506170817 | 8 | 32 | 0.0 | 0.0 | 0.10 | 4.95 | 3.73 | 94 | 1010.6 |
| 20260506163823 | 8 | 249 | 0.0 | 0.0 | 0.10 | 4.90 | 3.68 | 94 | 1010.4 |
| 20260506163817 | 8 | 249 | 0.0 | 0.0 | 0.10 | 4.90 | 3.68 | 94 | 1010.4 |
| 20260506160934 | 8 | 236 | 0.0 | 0.0 | 0.13 | 4.85 | 3.63 | 94 | 1010.4 |
| 20260506160827 | 8 | 236 | 0.0 | 0.0 | 0.13 | 4.85 | 3.63 | 94 | 1010.4 |
| 20260506160817 | 8 | 236 | 0.0 | 0.0 | 0.13 | 4.85 | 3.63 | 94 | 1010.4 |
| 20260506153835 | 8 | 333 | 0.0 | 0.0 | 0.20 | 4.80 | 3.58 | 94 | 1010.4 |
| 20260506153817 | 8 | 333 | 0.0 | 0.0 | 0.20 | 4.80 | 3.58 | 94 | 1010.4 |
| 20260506150817 | 8 | 275 | 0.0 | 0.0 | 0.25 | 4.72 | 3.51 | 94 | 1010.4 |
| 20260506143817 | 8 | 324 | 0.0 | 0.0 | 0.30 | 4.60 | 3.38 | 94 | 1010.3 |
| 20260506140817 | 8 | 248 | 0.0 | 3.2 | 0.33 | 4.47 | 3.25 | 94 | 1010.1 |
| 20260506133817 | 8 | 286 | 0.0 | 0.0 | 0.23 | 4.29 | 3.07 | 94 | 1010.1 |
| 20260506130959 | 8 | 286 | 0.0 | 0.0 | 0.10 | 4.14 | 2.92 | 94 | 1010.0 |
| 20260506130850 | 8 | 286 | 0.0 | 0.0 | 0.10 | 4.14 | 2.92 | 94 | 1010.0 |
| 20260506130817 | 8 | 286 | 0.0 | 0.0 | 0.10 | 4.14 | 2.92 | 94 | 1010.0 |
| 20260506123817 | 8 | 283 | 0.0 | 0.0 | 0.05 | 4.06 | 2.84 | 94 | 1009.8 |
| 20260506120817 | 8 | 269 | 0.0 | 0.0 | 0.08 | 4.19 | 2.82 | 94 | 1009.5 |
| 20260506113817 | 7 | 285 | 0.0 | 1.6 | 0.10 | 4.17 | 2.79 | 94 | 1009.5 |
| 20260506110817 | 7 | 281 | 0.0 | 0.0 | 0.13 | 4.34 | 2.74 | 94 | 1009.4 |
| 20260506103820 | 7 | 281 | 0.0 | 1.6 | 0.10 | 4.29 | 2.69 | 94 | 1009.3 |
| 20260506103817 | 7 | 281 | 0.0 | 1.6 | 0.10 | 4.29 | 2.69 | 94 | 1009.3 |
| 20260506100817 | 8 | 270 | 0.0 | 0.0 | 0.03 | 4.22 | 2.62 | 93 | 1009.0 |
| 20260506093817 | 8 | 311 | 0.0 | 3.2 | 0.03 | 4.19 | 2.59 | 93 | 1008.8 |
| 20260506090818 | 8 | 306 | 0.0 | 1.6 | 0.08 | 4.19 | 2.59 | 93 | 1008.4 |
| 20260506083818 | 9 | 259 | 0.0 | 0.0 | 0.13 | 4.17 | 2.57 | 94 | 1008.1 |
| 20260506080818 | 8 | 270 | 0.0 | 0.0 | 0.13 | 4.11 | 2.51 | 94 | 1008.0 |
| 20260506070818 | 8 | 281 | 0.0 | 0.0 | 0.25 | 3.99 | 2.39 | 94 | 1007.7 |
| 20260506060818 | 8 | 304 | 0.0 | 0.0 | 0.13 | 3.73 | 2.13 | 94 | 1007.4 |
| 20260506050823 | 8 | 4 | 0.0 | 0.0 | 0.30 | 3.61 | 2.01 | 94 | 1007.4 |
| 20260506050818 | 8 | 4 | 0.0 | 0.0 | 0.30 | 3.61 | 2.01 | 94 | 1007.4 |
| 20260506043832 | 8 | 304 | 0.0 | 0.0 | 0.13 | 3.38 | 1.78 | 94 | 1007.4 |
| 20260506043818 | 8 | 304 | 0.0 | 0.0 | 0.13 | 3.38 | 1.78 | 94 | 1007.4 |
| 20260506040818 | 9 | 276 | 0.0 | 0.0 | 0.13 | 3.30 | 1.70 | 94 | 1007.3 |
| 20260506033818 | 9 | 10 | 0.0 | 1.6 | 0.13 | 3.25 | 1.65 | 93 | 1007.3 |
| 20260506030818 | 9 | 273 | 0.0 | 1.6 | 0.13 | 3.17 | 1.57 | 93 | 1007.4 |
| 20260506023818 | 10 | 332 | 0.0 | 0.0 | 0.25 | 3.12 | 1.52 | 93 | 1007.7 |
| 20260506020818 | 10 | 337 | 0.0 | 0.0 | 0.33 | 3.05 | 1.45 | 94 | 1007.8 |
| 20260506013818 | 10 | 24 | 0.0 | 0.0 | 0.25 | 2.87 | 1.27 | 93 | 1008.0 |